N172SP KPDX-KDLS

Flight info

Callsign N172SP
Flight time N/A
Altitude VFR/035
Route VFR DEP E
Aircraft C172/L-VGD/C

Departure

Time 2026-05-05 07:46
Airport Portland International Airport (KPDX)

Arrival

Time N/A
Airport Columbia Gorge Regional Airport (KDLS)
Time Latitude Longitude Altitude Speed Heading
2026-05-05 07:37 45.58540 -122.57846 20 ft 0 kts 292°
2026-05-05 07:39 45.58540 -122.57847 20 ft 2 kts 295°
2026-05-05 07:39 45.58554 -122.57854 20 ft 0 kts 24°
2026-05-05 07:40 45.58616 -122.57874 20 ft 4 kts
2026-05-05 07:40 45.58628 -122.57867 20 ft 2 kts 28°
2026-05-05 07:40 45.58629 -122.57866 20 ft 0 kts 30°
2026-05-05 07:41 45.58630 -122.57865 20 ft 2 kts 28°
2026-05-05 07:41 45.58642 -122.57857 20 ft 0 kts 26°
2026-05-05 07:41 45.58655 -122.57770 20 ft 17 kts 119°
2026-05-05 07:41 45.58582 -122.57577 20 ft 26 kts 118°
2026-05-05 07:42 45.58476 -122.57309 20 ft 34 kts 117°
2026-05-05 07:42 45.58363 -122.57019 20 ft 32 kts 117°
2026-05-05 07:42 45.58272 -122.56769 20 ft 19 kts 98°
2026-05-05 07:42 45.58275 -122.56743 20 ft 0 kts 69°
2026-05-05 07:45 45.58284 -122.56717 20 ft 7 kts 46°
2026-05-05 07:45 45.58362 -122.56709 20 ft 18 kts 313°
2026-05-05 07:45 45.58510 -122.57077 22 ft 67 kts 297°
2026-05-05 07:45 45.58772 -122.57738 130 ft 83 kts 298°
2026-05-05 07:46 45.59040 -122.58444 389 ft 75 kts 301°
2026-05-05 07:46 45.59338 -122.59071 574 ft 79 kts 307°
2026-05-05 07:46 45.59782 -122.59469 752 ft 82 kts 355°
2026-05-05 07:46 45.60279 -122.59155 963 ft 82 kts 51°
2026-05-05 07:47 45.60300 -122.58368 1193 ft 81 kts 109°
2026-05-05 07:47 45.60109 -122.57563 1331 ft 90 kts 108°
2026-05-05 07:47 45.59875 -122.56747 1563 ft 83 kts 103°
2026-05-05 07:47 45.59765 -122.55952 1753 ft 87 kts 104°
2026-05-05 07:48 45.59517 -122.55175 1976 ft 83 kts 116°
2026-05-05 07:48 45.59289 -122.54395 2123 ft 90 kts 107°
2026-05-05 07:48 45.59019 -122.53563 2263 ft 95 kts 117°
2026-05-05 07:48 45.58746 -122.52744 2500 ft 84 kts 87°
2026-05-05 07:49 45.58854 -122.51908 2636 ft 88 kts 71°
2026-05-05 07:49 45.59013 -122.51055 2803 ft 89 kts 73°
2026-05-05 07:49 45.59132 -122.50231 2984 ft 88 kts 70°
2026-05-05 07:49 45.59334 -122.49314 3037 ft 99 kts 66°
2026-05-05 07:50 45.59637 -122.48359 3004 ft 112 kts 61°